Location: Unspecified
(0.0000°N, 0.0000°E)
Time: 21:20:18
(UTC+00:00)

GOMX 1 - Visible Passes

Search period start: 26 February 2024 00:00
Search period end: 07 March 2024 00:00
Orbit: 588 x 831 km, 97.7° (Epoch: 26 February)

Date Brightness Start Highest point End Pass type
(mag) Time Alt. Az. Time Alt. Az. Time Alt. Az.
26 Feb ? 18:50:58 10° NNE 18:56:23 82° E 19:01:49 10° S visible
27 Feb ? 19:36:43 10° NNW 19:41:20 29° WNW 19:45:57 10° SW visible
28 Feb ? 18:43:16 10° NNE 18:48:39 68° ESE 18:54:01 10° S visible
29 Feb ? 19:28:41 10° NNW 19:33:35 35° WNW 19:38:28 10° SW visible
01 Mar ? 18:35:35 10° NNE 18:40:53 55° ESE 18:46:08 10° S visible
02 Mar ? 19:20:43 10° N 19:25:49 43° WNW 19:30:53 10° SSW visible
03 Mar ? 18:27:58 10° NNE 18:33:07 45° ESE 18:38:11 10° S visible
03 Mar ? 20:08:40 10° NW 20:10:42 12° WNW 20:12:44 10° W visible
04 Mar ? 19:12:48 10° N 19:18:03 52° WNW 19:23:14 10° SSW visible
05 Mar ? 19:59:57 10° NW 20:02:56 15° WNW 20:05:54 10° WSW visible
06 Mar ? 19:04:56 10° N 19:10:17 64° WNW 19:15:30 10° SSW visible
